GFSNIL_sfc_dewp_021.txt.gz
Dewpoint
31 31 31 31 32 33 34 35 37 36 38 38 36 35 35 35 34 33 32 31 32 30
31 31 30 30 31 32 32 31 33 35 35 36 35 35 33 34 33 32 32 31 31 30
28 29 30 31 32 32 31 31 32 33 34 34 34 34 33 33 33 32 30 30 29 29
26 26 25 25 28 31 31 31 31 31 33 33 33 33 32 31 31 30 30 28 28 27
22 24 22 22 24 29 30 31 30 30 30 31 31 31 31 30 29 29 28 27 26 24
23 24 23 21 23 26 27 28 30 29 29 29 29 29 29 29 28 27 27 26 25 23
21 22 21 20 22 25 26 25 27 28 28 28 27 26 27 27 26 26 25 25 25 23
20 20 22 22 22 26 26 24 25 27 28 28 27 25 26 25 26 26 25 24 23 23
24 23 23 22 21 23 24 22 23 23 24 26 26 29 30 29 27 25 23 23 23 22
23 23 21 20 18 18 19 19 20 21 22 22 24 27 29 31 29 27 26 23 22 21
22 21 19 17 17 16 17 17 17 18 21 22 22 25 27 30 29 28 27 26 24 23
19 20 19 17 15 15 17 17 18 19 19 20 22 24 25 26 29 28 28 27 26 25
19 18 17 17 15 16 16 16 15 16 17 18 19 22 24 24 26 28 28 28 27 28
17 17 16 16 15 14 13 13 12 12 13 15 17 19 22 24 24 26 27 27 28 27

GFSNIL_sfc_dewp_024.txt.gz
Dewpoint
31 32 32 31 32 32 33 33 34 35 36 38 38 37 35 35 34 33 33 30 31 31
27 26 27 30 32 31 31 30 31 32 33 34 36 36 35 33 33 32 32 32 31 31
26 25 24 25 26 29 31 31 31 31 31 32 33 33 33 32 32 32 31 31 30 30
24 24 23 23 24 27 28 29 31 30 30 30 31 31 31 31 31 30 30 30 29 29
23 25 23 21 22 25 26 27 28 29 29 29 29 30 30 30 30 29 29 29 29 27
20 22 21 19 20 22 25 25 26 27 28 27 28 28 29 29 29 29 29 28 28 28
20 20 20 21 21 21 23 25 24 24 26 27 27 27 27 27 27 27 27 27 27 27
21 21 22 22 22 21 21 24 23 21 23 23 25 26 26 26 27 27 26 26 26 26
23 22 22 22 21 20 20 21 20 19 21 20 20 24 25 26 27 28 27 26 25 25
22 21 21 21 20 17 16 16 16 17 17 17 18 22 23 27 25 27 28 27 27 26
22 21 20 19 18 17 15 14 14 14 15 15 16 21 22 24 23 24 26 27 27 27
18 18 17 17 17 17 16 15 14 15 14 14 15 19 20 20 19 21 23 24 26 27
16 15 14 15 15 15 15 15 14 14 13 13 12 16 18 17 17 18 20 22 23 27
9 9 9 9 9 10 10 11 10 10 10 10 11 11 17 18 16 16 18 20 20 22

GFSNIL_sfc_dewp_030.txt.gz
Dewpoint
22 23 22 23 24 24 25 25 27 27 28 29 30 31 32 33 33 35 35 34 33 32
23 20 19 20 22 22 23 22 24 25 25 25 26 28 29 30 30 31 32 32 33 32
22 23 21 20 19 20 21 24 24 24 24 24 24 24 25 27 28 29 29 30 31 32
21 21 21 20 20 19 19 20 21 23 24 24 24 23 23 22 24 26 27 28 29 30
19 19 19 19 20 21 20 20 19 19 19 19 19 21 23 23 23 23 22 24 27 28
18 18 19 20 20 21 21 21 20 19 19 19 19 18 17 18 20 22 23 24 25 25
19 19 20 21 21 21 22 21 21 20 19 18 18 16 16 17 17 19 21 24 25 25
20 21 21 21 22 22 22 21 21 19 18 17 15 13 14 16 18 19 19 20 21 23
21 20 21 21 21 19 18 16 15 15 15 15 14 19 20 19 17 17 16 17 18 19
19 19 19 17 15 13 11 11 11 12 12 13 14 19 20 20 18 18 17 16 16 17
17 14 12 10 9 8 8 8 8 8 9 9 10 16 17 16 13 14 16 16 15 15
12 9 8 6 6 5 5 5 5 6 6 6 6 12 13 12 10 11 11 10 11 11
9 4 4 4 3 3 3 4 3 3 3 3 2 9 12 11 9 8 9 11 10 15
5 3 2 2 2 1 0 1 -1 -0 0 1 2 3 10 12 9 9 8 8 9 9

GFSNIL_sfc_dewp_033.txt.gz
Dewpoint
19 19 19 20 20 21 22 22 23 23 23 24 24 24 25 27 28 30 31 32 33 34
20 19 18 18 20 20 20 19 22 21 21 21 21 22 23 25 25 27 29 29 31 31
20 20 19 19 19 19 19 20 20 20 21 22 22 22 21 20 21 23 23 23 27 28
19 19 19 19 19 20 20 20 20 20 20 20 20 20 21 21 20 20 21 21 23 24
17 18 18 19 19 21 20 21 20 20 20 19 18 19 19 18 19 20 18 19 21 21
17 18 18 19 20 21 21 21 21 20 19 18 18 17 16 16 15 16 17 19 21 21
19 19 19 20 21 21 22 21 21 20 19 18 17 16 15 14 14 16 17 18 18 19
20 20 20 20 21 20 20 17 15 12 13 12 12 12 14 15 17 18 17 17 17 17
19 19 19 17 15 12 11 10 10 10 10 11 9 15 18 17 15 16 17 18 17 17
17 15 14 11 10 9 8 8 8 7 7 6 6 13 16 16 11 11 11 11 12 15
13 10 9 8 7 6 6 5 5 5 5 5 4 12 13 14 9 9 8 8 9 9
10 7 7 4 5 4 4 4 3 5 4 3 3 10 12 12 9 9 9 7 7 8
9 2 2 4 2 3 2 3 2 3 2 2 0 8 11 11 9 8 9 9 6 11
5 2 1 0 2 0 -1 0 -1 -1 -0 -0 1 2 10 12 9 10 9 10 11 11